Previsão horária em Al-Kunajtira

Hoje, 15 Junho, Terça-feira

Tempo Temperatura Precipitação Vento Pressão Humidade
00:00 +20°C° 0 mm 3 m/s 732 mmHg 81%
01:00 +20°C° 0 mm 3 m/s 731 mmHg 82%
02:00 +19°C° 0 mm 3 m/s 731 mmHg 83%
03:00 +19°C° 0 mm 3 m/s 731 mmHg 83%
04:00 +19°C° 0 mm 3 m/s 732 mmHg 83%
05:00 +20°C° 0 mm 3 m/s 732 mmHg 83%
06:00 +21°C° 0 mm 4 m/s 732 mmHg 73%
07:00 +23°C° 0 mm 5 m/s 732 mmHg 63%
08:00 +26°C° 0 mm 5 m/s 732 mmHg 52%
09:00 +27°C° 0 mm 6 m/s 732 mmHg 47%
10:00 +28°C° 0 mm 6 m/s 732 mmHg 42%
11:00 +30°C° 0 mm 7 m/s 732 mmHg 36%
12:00 +30°C° 0 mm 7 m/s 732 mmHg 36%
13:00 +31°C° 0 mm 8 m/s 731 mmHg 35%
14:00 +32°C° 0 mm 8 m/s 731 mmHg 34%
15:00 +31°C° 0 mm 8 m/s 731 mmHg 36%
16:00 +29°C° 0 mm 8 m/s 731 mmHg 39%
17:00 +28°C° 0 mm 8 m/s 731 mmHg 41%
18:00 +26°C° 0 mm 7 m/s 731 mmHg 52%
19:00 +23°C° 0 mm 6 m/s 731 mmHg 62%
20:00 +21°C° 0 mm 5 m/s 731 mmHg 73%
21:00 +21°C° 0 mm 4 m/s 731 mmHg 76%
22:00 +21°C° 0 mm 4 m/s 731 mmHg 80%
23:00 +20°C° 0 mm 4 m/s 731 mmHg 83%

Amanhã, 16 Junho, Quarta-feira

Tempo Temperatura Precipitação Vento Pressão Humidade
00:00 +20°C° 0 mm 4 m/s 731 mmHg 82%
01:00 +20°C° 0 mm 4 m/s 731 mmHg 82%
02:00 +20°C° 0 mm 4 m/s 731 mmHg 82%
03:00 +20°C° 0 mm 4 m/s 731 mmHg 81%
04:00 +20°C° 0 mm 4 m/s 731 mmHg 80%
05:00 +20°C° 0 mm 4 m/s 731 mmHg 79%
06:00 +22°C° 0 mm 5 m/s 731 mmHg 71%
07:00 +23°C° 0 mm 6 m/s 731 mmHg 63%
08:00 +26°C° 0 mm 7 m/s 731 mmHg 55%
09:00 +27°C° 0 mm 7 m/s 731 mmHg 50%
10:00 +28°C° 0 mm 8 m/s 731 mmHg 45%
11:00 +29°C° 0 mm 9 m/s 731 mmHg 41%
12:00 +29°C° 0 mm 9 m/s 731 mmHg 40%
13:00 +29°C° 0 mm 10 m/s 731 mmHg 40%
14:00 +29°C° 0 mm 10 m/s 731 mmHg 39%
15:00 +28°C° 0 mm 9 m/s 732 mmHg 43%
16:00 +27°C° 0 mm 9 m/s 732 mmHg 47%
17:00 +26°C° 0 mm 9 m/s 732 mmHg 52%
18:00 +23°C° 0 mm 8 m/s 732 mmHg 59%
19:00 +22°C° 0 mm 7 m/s 733 mmHg 66%
20:00 +21°C° 0 mm 5 m/s 733 mmHg 73%
21:00 +21°C° 0 mm 5 m/s 733 mmHg 74%
22:00 +21°C° 0 mm 4 m/s 734 mmHg 74%
23:00 +21°C° 0 mm 4 m/s 734 mmHg 75%

Depois de amanhã, 17 Junho, Quinta-feira

Tempo Temperatura Precipitação Vento Pressão Humidade
00:00 +20°C° 0 mm 4 m/s 734 mmHg 76%
01:00 +20°C° 0 mm 3 m/s 734 mmHg 78%
02:00 +19°C° 0 mm 3 m/s 734 mmHg 79%
03:00 +19°C° 0 mm 3 m/s 734 mmHg 79%
04:00 +19°C° 0 mm 3 m/s 734 mmHg 79%
05:00 +19°C° 0 mm 3 m/s 734 mmHg 79%
06:00 +21°C° 0 mm 4 m/s 734 mmHg 70%
07:00 +23°C° 0 mm 4 m/s 734 mmHg 61%
08:00 +26°C° 0 mm 5 m/s 734 mmHg 52%
09:00 +27°C° 0 mm 6 m/s 734 mmHg 47%
10:00 +29°C° 0 mm 6 m/s 734 mmHg 42%
11:00 +30°C° 0 mm 7 m/s 734 mmHg 36%
12:00 +32°C° 0 mm 7 m/s 734 mmHg 37%
13:00 +32°C° 0 mm 7 m/s 734 mmHg 37%
14:00 +32°C° 0 mm 8 m/s 734 mmHg 37%
15:00 +31°C° 0 mm 8 m/s 734 mmHg 40%
16:00 +29°C° 0 mm 8 m/s 734 mmHg 44%
17:00 +28°C° 0 mm 8 m/s 734 mmHg 47%
18:00 +26°C° 0 mm 7 m/s 734 mmHg 55%
19:00 +23°C° 0 mm 6 m/s 734 mmHg 64%
20:00 +22°C° 0 mm 4 m/s 734 mmHg 73%
21:00 +21°C° 0 mm 4 m/s 734 mmHg 76%
22:00 +21°C° 0 mm 4 m/s 734 mmHg 79%
23:00 +20°C° 0 mm 4 m/s 734 mmHg 82%

18 Junho, Sexta-feira

Tempo Temperatura Precipitação Vento Pressão Humidade
00:00 +20°C° 0 mm 3 m/s 733 mmHg 84%
01:00 +20°C° 0 mm 3 m/s 733 mmHg 85%
02:00 +19°C° 0 mm 3 m/s 733 mmHg 86%
03:00 +19°C° 0 mm 2 m/s 733 mmHg 87%
04:00 +19°C° 0 mm 2 m/s 733 mmHg 87%
05:00 +19°C° 0 mm 2 m/s 733 mmHg 87%
06:00 +22°C° 0 mm 3 m/s 733 mmHg 76%
07:00 +25°C° 0 mm 3 m/s 733 mmHg 65%
08:00 +27°C° 0 mm 4 m/s 733 mmHg 54%
09:00 +29°C° 0 mm 4 m/s 732 mmHg 47%
10:00 +32°C° 0 mm 5 m/s 732 mmHg 40%
11:00 +34°C° 0 mm 5 m/s 732 mmHg 32%
12:00 +34°C° 0 mm 6 m/s 732 mmHg 31%
13:00 +35°C° 0 mm 6 m/s 731 mmHg 29%
14:00 +35°C° 0 mm 6 m/s 731 mmHg 28%
15:00 +34°C° 0 mm 6 m/s 731 mmHg 30%
16:00 +33°C° 0 mm 6 m/s 731 mmHg 33%
17:00 +32°C° 0 mm 6 m/s 731 mmHg 35%
18:00 +29°C° 0 mm 5 m/s 731 mmHg 45%
19:00 +27°C° 0 mm 5 m/s 731 mmHg 54%
20:00 +23°C° 0 mm 4 m/s 731 mmHg 64%
21:00 +23°C° 0 mm 4 m/s 731 mmHg 66%
22:00 +22°C° 0 mm 4 m/s 731 mmHg 69%
23:00 +22°C° 0 mm 4 m/s 731 mmHg 71%

19 Junho, Sábado

Tempo Temperatura Precipitação Vento Pressão Humidade
00:00 +21°C° 0 mm 3 m/s 731 mmHg 73%
01:00 +21°C° 0 mm 3 m/s 730 mmHg 75%
02:00 +21°C° 0 mm 3 m/s 730 mmHg 77%
03:00 +21°C° 0 mm 3 m/s 730 mmHg 79%
04:00 +21°C° 0 mm 3 m/s 730 mmHg 80%
05:00 +21°C° 0 mm 3 m/s 730 mmHg 82%
06:00 +23°C° 0 mm 4 m/s 730 mmHg 70%
07:00 +26°C° 0 mm 4 m/s 730 mmHg 59%
08:00 +29°C° 0 mm 5 m/s 730 mmHg 47%
09:00 +30°C° 0 mm 6 m/s 730 mmHg 43%
10:00 +33°C° 0 mm 6 m/s 730 mmHg 38%
11:00 +35°C° 0 mm 7 m/s 730 mmHg 34%
12:00 +35°C° 0 mm 7 m/s 730 mmHg 33%
13:00 +35°C° 0 mm 8 m/s 730 mmHg 33%
14:00 +35°C° 0 mm 8 m/s 730 mmHg 32%
15:00 +34°C° 0 mm 8 m/s 730 mmHg 35%
16:00 +33°C° 0 mm 8 m/s 730 mmHg 39%
17:00 +32°C° 0 mm 8 m/s 730 mmHg 42%
18:00 +29°C° 0 mm 7 m/s 730 mmHg 51%
19:00 +27°C° 0 mm 5 m/s 730 mmHg 60%
20:00 +25°C° 0 mm 4 m/s 730 mmHg 70%
21:00 +23°C° 0 mm 4 m/s 730 mmHg 73%
22:00 +22°C° 0 mm 4 m/s 731 mmHg 77%
23:00 +22°C° 0 mm 3 m/s 731 mmHg 81%

20 Junho, Domingo

Tempo Temperatura Precipitação Vento Pressão Humidade
00:00 +21°C° 0 mm 3 m/s 731 mmHg 82%
01:00 +21°C° 0 mm 3 m/s 731 mmHg 83%
02:00 +21°C° 0 mm 3 m/s 731 mmHg 84%
03:00 +21°C° 0 mm 3 m/s 731 mmHg 84%
04:00 +21°C° 0 mm 3 m/s 731 mmHg 84%
05:00 +20°C° 0 mm 2 m/s 731 mmHg 84%
06:00 +24°C° 0 mm 3 m/s 732 mmHg 71%
07:00 +26°C° 0 mm 3 m/s 732 mmHg 59%
08:00 +28°C° 0 mm 4 m/s 732 mmHg 47%
09:00 +30°C° 0 mm 4 m/s 732 mmHg 41%
10:00 +33°C° 0 mm 5 m/s 732 mmHg 35%
11:00 +35°C° 0 mm 5 m/s 732 mmHg 28%
12:00 +35°C° 0 mm 6 m/s 732 mmHg 26%
13:00 +36°C° 0 mm 6 m/s 732 mmHg 24%
14:00 +36°C° 0 mm 6 m/s 732 mmHg 22%
15:00 +35°C° 0 mm 6 m/s 732 mmHg 24%
16:00 +34°C° 0 mm 6 m/s 731 mmHg 25%
17:00 +33°C° 0 mm 6 m/s 731 mmHg 26%
18:00 +30°C° 0 mm 5 m/s 731 mmHg 33%
19:00 +27°C° 0 mm 4 m/s 732 mmHg 40%
20:00 +25°C° 0 mm 3 m/s 732 mmHg 47%
21:00 +24°C° 0 mm 3 m/s 732 mmHg 50%
22:00 +22°C° 0 mm 3 m/s 732 mmHg 52%
23:00 +23°C° 0 mm 2 m/s 732 mmHg 55%
Mostrar mais